Вернуться в каталог

ONEWEB-0216

АктивенСвязьPO
NORAD 48801·PAYLOAD·🇬🇧 United Kingdom

Запущен May 28, 2021 с Vostochny Cosmodrome

Loading…

Ближайшие Пролёты (ближайшие 24 часа)

TLE

СвежийSource: CelesTrak SupGP

Эпоха: Sep 14, 2026, 19:02 UTC

1 48801C 21045AL  26257.79324491  .00003054  00000+0  81222-2 0  2579
2 48801  87.8992 241.3324 0002109  86.7080 309.5010 13.15545681    14

Отслеживайте ONEWEB-0216 в реальном времени с AllMySat

Download on the App Store